Location: Cork
(51.8990°N, 8.4960°W)
Time: 03:23:06
(UTC+01:00)

Iridium 66 - Visible Passes

Search period start: 28 March 2017 00:00
Search period end: 07 April 2017 00:00
Orbit: 776 x 779 km, 86.4° (Epoch: 26 March)

Date Brightness Start Highest point End Pass type
(mag) Time Alt. Az. Time Alt. Az. Time Alt. Az.
28 Mar 8.6 05:12:51 10° SE 05:16:41 21° ENE 05:20:30 10° NNE visible
29 Mar 9.1 04:41:18 10° E 04:43:33 13° ENE 04:45:48 10° NE visible
29 Mar 6.3 06:18:09 10° S 06:23:21 76° E 06:28:35 10° N visible
30 Mar 7.2 05:44:58 10° SSE 05:49:55 45° E 05:54:53 10° NNE visible
31 Mar 8.1 05:12:14 10° SE 05:16:36 28° E 05:20:59 10° NNE visible
01 Apr 8.8 04:40:05 10° ESE 04:43:24 17° ENE 04:46:45 10° NE visible
01 Apr 6.0 06:18:14 10° S 06:23:28 81° W 06:28:43 10° N visible
02 Apr 9.2 04:09:33 10° ENE 04:10:20 10° ENE 04:11:07 10° ENE visible
02 Apr 6.6 05:44:50 10° SSE 05:49:57 62° E 05:55:08 10° N visible
03 Apr 7.5 05:11:49 10° SSE 05:16:35 37° E 05:21:22 10° NNE visible
04 Apr 8.3 04:39:17 10° SE 04:43:19 23° ENE 04:47:21 10° NNE visible
04 Apr 6.1 06:18:29 10° SSW 06:23:38 60° W 06:28:49 10° N visible
05 Apr 8.8 04:07:28 10° ESE 04:10:10 14° ENE 04:12:51 10° NE visible
05 Apr 6.1 05:44:50 10° S 05:50:03 84° E 05:55:19 10° N visible
06 Apr 6.9 05:11:35 10° SSE 05:16:36 50° E 05:21:39 10° NNE visible
